sat.trackr.live / text

‹ back to catalog

NORSAT 2

NORAD 42828 · 2017-042D

PAYLOAD ACTIVE UNKNOWN

§ Identity

Operator
Country
NOR
Launch date
2017-07-14
Launch site
TYMSC
Launch vehicle
Mass (kg)
RCS (m²)

External: N2YO · Heavens-Above · Gunter

§ Orbital elements

Epoch: 2026-09-19T22:00:07.994016Z

Period
94.52 min
Inclination
97.4109°
Eccentricity
0.0010467
Mean motion
15.23553105 rev/d
Perigee alt
487.9 km
Apogee alt
502.3 km
Semi-major
6,873.3 km
B*
2.9112e-4
RAAN
75.0168°
Arg perigee
80.1786°
Mean anomaly
280.0633°
Rev number
50,215

§ Raw data

NORSAT 21 42828U 17042D   26262.91675919  .00006898  00000+0  29112-3 0  99912 42828  97.4109  75.0168 0010467  80.1786 280.0633 15.23553105502156

JSON: /api/v1/satellites/42828 · /tle

For live sub-satellite position, see the globe view (requires WebGL).

§ Visibility from observer

Set your observer location to see the next 7 days of passes ≥ 10°. The values pass through the URL so the page stays shareable.

No JS? Fill the form by hand. The geolocation button needs JavaScript.

§ Radio — SatNOGS DB

ModeDescriptionDownlinkUplink
FM Mode L 2.209 GHz
GMSK NORSAT-2 VDES transmitter 161.788 MHz–161.938 MHz 157.188 MHz–157.338 MHz

2 transmitters · refreshed weekly from db.satnogs.org